User: anonymous   Login
Location: Unspecified
(0.0000°N, 0.0000°E)
Time: 04:07:46
(UTC+00:00)
Language:

NOSS 7 (D) - Orbit

View from above orbital plane
View from above orbital plane
View from above satellite
View from above satellite

Ground track
Ground track

The orbit data is extracted from the following two-line orbital elements,

1 16623U 86014D   18019.77817458 0.00000400  00000-0  46681-4 0    09
2 16623  63.3090 347.2352 0897000  60.0984 299.9016 13.45341620    03
Epoch (UTC): 19 January 2018 18:40:34
Eccentricity: 0.0897000
inclination: 63.3090°
perigee height: 419 km
apogee height: 1759 km
right ascension of ascending node: 347.2352°
argument of perigee: 60.0984°
revolutions per day: 13.45341620
mean anomaly at epoch: 299.9016°
orbit number at epoch: 0

The dashed part of the orbit path shows where the satellite is in the earth's shadow,  

DLR